This is the latest recevied weather packets stored in our database for station/object W9KHP-1. If no packets are shown the sender has not sent any weather packets the latest 1 day(s).
| Time | Temp. | Humidity | Pressure | Rain* | Wind** | Luminosity | Snow |
|---|---|---|---|---|---|---|---|
| 1778045661 | 9.44° C | 99% | 1011.6 hPa | 0 mm | 0 m/s | 0 W/m² | - |
| 1778045360 | 9.44° C | 99% | 1011.2 hPa | 0 mm | 0 m/s | 0 W/m² | - |
| 1778045058 | 9.44° C | 99% | 1011.1 hPa | 1.27 mm | 0 m/s | 0 W/m² | - |
| 1778044755 | 9.44° C | 99% | 1011.2 hPa | 0 mm | 0 m/s | 0 W/m² | - |
| 1778044452 | 9.44° C | 99% | 1011.3 hPa | 0 mm | 0.45 m/s, 355° | 0 W/m² | - |
| 1778044148 | 9.44° C | 99% | 1011.1 hPa | 0 mm | 1.79 m/s, 35° | 0 W/m² | - |
| 1778043846 | 9.44° C | 99% | 1011 hPa | 0 mm | 0 m/s | 0 W/m² | - |
| 1778043551 | 9.44° C | 99% | 1011.4 hPa | 1.78 mm | 0.89 m/s, 1° | 0 W/m² | - |
| 1778043240 | 9.44° C | 99% | 1011.2 hPa | 3.56 mm | 0 m/s | 0 W/m² | - |
| 1778042937 | 9.44° C | 99% | 1011 hPa | 4.83 mm | 0.45 m/s, 348° | 0 W/m² | - |
| 1778042634 | 9.44° C | 99% | 1011.3 hPa | 3.05 mm | 0 m/s | 0 W/m² | - |
| 1778042331 | 9.44° C | 99% | 1010.9 hPa | 3.05 mm | 0.45 m/s, 343° | 0 W/m² | - |
| 1778042028 | 9.44° C | 99% | 1010.6 hPa | 4.83 mm | 0 m/s | 0 W/m² | - |
| 1778041727 | 9.44° C | 99% | 1010.5 hPa | 1.27 mm | 0.45 m/s, 17° | 0 W/m² | - |
| 1778041425 | 10° C | 99% | 1010.5 hPa | 0 mm | 0.45 m/s, 44° | 0 W/m² | - |
| 1778041124 | 10° C | 99% | 1010.7 hPa | 0 mm | 0 m/s | 0 W/m² | - |
| 1778040820 | 10° C | 99% | 1010.5 hPa | 0 mm | 0.89 m/s, 335° | 0 W/m² | - |
| 1778040517 | 10° C | 99% | 1010.4 hPa | 0 mm | 0.45 m/s, 7° | 0 W/m² | - |
| 1778040215 | 10° C | 99% | 1010.6 hPa | 1.78 mm | 0.89 m/s, 303° | 0 W/m² | - |
| 1778039911 | 10° C | 99% | 1010.6 hPa | 3.05 mm | 0.45 m/s, 353° | 0 W/m² | - |
| 1778039609 | 10° C | 99% | 1010.8 hPa | 3.05 mm | 0 m/s | 0 W/m² | - |
| 1778039306 | 10° C | 99% | 1010.8 hPa | 0 mm | 0 m/s | 0 W/m² | - |
| 1778039003 | 10° C | 99% | 1010.2 hPa | 0 mm | 1.79 m/s, 334° | 0 W/m² | - |
| 1778038700 | 10° C | 99% | 1009.9 hPa | 0 mm | 0.45 m/s, 313° | 0 W/m² | - |
| 1778038397 | 10° C | 99% | 1009.8 hPa | 0 mm | 0.45 m/s, 340° | 0 W/m² | - |
* Rain latest hour (hover to see other rain measurements)
** Current wind speed in m/s (hover to see current wind gust speed)